RH
70 79 88 93 89 95 87 82 79 98 75 97 76 82 67 53 83 79 68 34 36 50 84 93 96 95 97 96 99 99 99 90 85 87 80 81 84 92
69 80 87 88 97 97 96 95 97 99 95 98 89 100 98 91 79 65 71 84 100 95 58 76 95 97 97 97 95 99 100 95 87 86 83 75 83 86
63 75 93 100 96 96 96 91 69 96 94 100 95 70 59 97 100 98 98 89 90 43 51 90 96 96 97 96 96 97 98 100 94 95 84 82 79 81
93 78 77 85 95 96 97 94 89 93 96 81 46 32 23 47 99 79 83 68 27 20 53 94 95 96 97 97 96 97 98 96 96 92 96 83 93 96
85 88 93 90 100 99 95 93 92 95 97 76 67 59 52 52 97 90 80 58 19 33 53 89 83 97 95 96 97 97 94 96 99 94 99 95 89 88
82 82 87 90 91 92 95 97 96 96 97 95 93 91 78 95 83 82 84 29 94 99 83 87 86 96 97 96 98 97 98 98 96 95 98 98 96 96
63 86 86 92 81 80 89 97 97 96 97 95 81 90 82 68 60 69 74 76 90 98 89 90 99 98 97 98 98 99 98 97 95 95 96 96 92 94
39 40 35 49 84 100 93 96 94 95 91 95 97 82 49 40 40 38 27 43 52 32 41 39 43 77 99 96 98 97 97 98 97 96 98 93 94 90
93 98 72 96 96 94 95 96 90 83 91 50 27 21 15 14 14 14 18 13 8 11 7 7 7 9 13 19 58 96 100 100 100 96 99 92 97 98
45 53 62 86 96 89 58 40 38 25 19 12 8 7 7 7 8 8 8 8 9 10 9 8 8 8 7 7 9 11 14 63 95 99 99 99 99 98
80 66 85 67 46 20 19 11 8 8 8 8 8 8 7 8 9 9 10 11 11 12 12 12 11 10 9 8 8 8 11 14 17 47 92 99 98 98
30 26 25 20 12 7 8 9 8 9 9 10 10 10 11 11 12 13 13 14 15 16 15 13 11 9 8 8 7 8 8 14 19 18 23 69 99 98
8 9 9 9 9 9 9 10 10 10 11 14 15 14 15 15 16 16 16 18 19 20 15 11 10 9 6 5 4 6 12 16 24 22 24 25 91 99
15 15 15 15 16 16 17 18 19 19 18 19 20 19 19 19 19 21 25 26 24 19 14 11 10 8 4 3 4 9 22 30 35 32 25 38 47 98
23 22 22 23 24 24 24 24 25 26 27 28 29 30 29 28 30 34 33 29 22 15 12 8 4 3 3 7 70 56 41 53 48 44 71 100 99 98
35 35 33 32 35 36 35 36 36 37 38 39 39 40 42 42 40 36 31 22 17 10 6 4 5 7 7 7 88 95 55 77 77 100 76 53 100 98
50 51 51 50 49 48 46 46 49 50 49 48 48 47 45 40 39 36 26 17 12 6 4 6 8 9 8 7 8 37 100 100 100 100 86 99 100 97
55 59 62 64 65 65 63 62 61 59 58 54 49 45 44 43 37 27 17 12 6 3 5 7 9 10 9 8 10 26 100 71 100 100 100 100 100 100
67 75 76 72 73 77 76 76 74 68 62 61 58 53 50 39 28 19 13 7 3 4 8 11 11 11 10 9 17 43 76 94 100 100 100 100 100 100
70 72 75 75 75 77 79 80 77 74 74 71 65 59 47 29 16 10 6 3 4 6 11 15 15 14 13 12 14 79 86 100 100 100 100 97 100 100
89 83 76 73 74 76 80 82 79 75 74 73 68 45 22 13 8 4 3 4 6 9 14 19 22 22 19 18 23 64 100 100 100 100 100 100 100 100
70 68 69 74 79 82 81 86 85 86 85 73 46 22 12 7 4 3 4 6 11 22 28 33 32 31 33 38 43 68 77 100 100 100 100 100 100 100
71 73 80 91 88 87 93 90 91 87 78 52 18 12 5 4 4 5 6 14 33 57 56 52 46 44 59 61 64 68 76 81 95 100 100 100 100 100
Wind_Speed
68 65 63 59 56 47 54 55 54 51 56 52 44 42 46 48 47 51 54 52 54 56 57 53 58 51 47 36 32 34 37 37 33 34 33 31 31 30
72 69 66 65 65 65 63 56 55 50 48 43 47 49 55 52 52 54 54 56 55 56 63 62 58 58 48 41 37 35 34 33 30 29 32 34 36 35
75 67 62 60 63 60 64 62 64 62 44 50 48 49 55 51 57 56 59 64 68 65 63 60 58 55 49 46 41 40 34 36 34 32 32 33 34 32
74 73 75 71 64 60 62 61 70 61 65 66 63 62 65 66 62 65 61 66 68 68 64 63 54 51 48 50 47 48 47 43 39 38 36 35 32 31
67 67 67 66 67 68 64 63 63 68 66 62 65 66 70 70 71 60 65 68 69 68 65 63 49 50 47 46 50 50 50 47 46 47 45 40 37 34
54 54 58 65 69 66 65 61 60 63 64 66 65 66 69 65 73 70 65 72 68 65 61 54 49 51 54 55 54 54 53 54 53 51 53 50 48 46
47 47 52 56 58 62 66 66 63 60 60 53 62 61 57 58 56 56 59 63 56 50 47 47 52 56 58 61 60 59 60 57 58 62 56 56 58 53
49 52 55 56 55 60 61 62 59 56 53 47 34 39 30 34 32 33 32 35 39 37 45 43 48 55 59 59 59 57 60 59 60 63 63 59 58 57
40 43 41 41 42 45 46 43 31 28 23 16 21 26 30 36 36 34 35 40 40 44 46 46 49 49 55 56 60 61 62 64 64 64 63 62 61 55
17 18 25 33 29 16 11 9 12 16 19 26 32 35 38 41 44 46 46 48 50 53 57 57 59 60 60 60 61 64 65 70 70 70 68 65 63 62
5 3 3 4 7 12 14 19 24 28 31 36 39 44 47 49 50 53 55 57 59 62 67 69 70 73 73 72 71 69 69 67 65 68 74 71 69 69
8 7 8 11 17 22 26 29 33 37 39 42 46 50 52 55 58 60 61 64 68 70 74 78 80 84 86 83 80 77 74 72 70 64 66 66 71 72
9 13 17 21 25 29 32 36 41 45 47 50 53 57 59 62 64 66 69 73 75 78 81 88 89 94 94 90 86 80 76 75 73 66 64 64 61 65
17 20 23 27 31 34 38 41 45 48 51 54 57 61 63 66 69 71 75 77 81 85 88 95 100 99 87 78 78 81 80 76 72 68 60 60 58 59
24 28 31 34 37 41 44 48 51 54 56 58 61 64 67 70 73 77 81 84 87 92 99 102 90 77 69 70 72 72 63 57 56 57 56 54 51 51
31 34 37 40 43 46 49 52 55 59 62 64 66 69 71 73 76 79 83 87 92 98 97 85 71 60 58 61 68 66 53 48 48 49 52 53 50 57
39 42 45 47 50 53 55 57 60 62 65 68 71 73 75 77 80 82 86 90 96 99 85 69 63 57 54 55 55 54 53 48 58 51 54 58 57 54
47 49 52 54 57 59 59 62 64 66 68 70 72 75 77 80 81 85 89 96 100 91 77 66 59 55 51 50 50 53 48 55 44 55 54 41 37 39
55 56 56 58 59 60 62 64 66 69 71 72 72 75 77 79 83 87 93 98 93 77 63 56 53 51 47 46 50 51 57 63 48 42 47 45 51 51
57 59 60 61 61 61 62 65 67 70 73 75 75 76 78 80 85 90 94 88 74 60 50 45 46 47 44 44 46 52 54 45 46 49 48 45 43 45
60 59 60 62 62 62 63 65 67 69 70 71 73 75 78 82 87 88 81 69 57 48 40 38 40 41 42 42 45 51 50 52 32 38 43 40 41 43
56 59 61 61 60 61 62 64 64 66 69 70 72 75 80 83 83 77 66 53 43 36 34 33 34 36 38 41 43 47 50 48 33 31 36 37 42 39
59 59 60 59 59 61 61 61 63 65 66 68 71 77 79 77 71 61 50 39 33 31 31 30 30 31 32 36 37 39 46 50 52 30 29 28 33 36
Wind_Direction
254 255 256 259 258 261 257 262 268 267 263 262 265 270 275 279 281 286 289 298 299 296 296 300 301 295 283 285 282 286 289 290 289 283 283 281 278 274
251 252 255 255 255 252 255 258 262 265 264 270 272 277 278 279 284 285 287 292 295 298 297 292 296 289 279 274 278 284 285 287 287 282 282 279 277 275
248 249 247 253 254 255 256 254 258 257 266 261 273 277 275 284 284 284 289 291 295 298 296 292 289 283 275 270 273 281 276 283 282 284 285 279 279 279
244 248 250 251 251 255 253 255 256 265 270 271 277 276 279 281 281 282 288 294 296 295 292 292 283 279 275 274 273 271 275 278 272 280 284 280 275 275
242 243 244 251 252 255 255 256 256 257 271 270 270 273 274 276 281 280 282 292 292 290 294 288 281 274 273 276 275 269 273 272 274 273 277 278 273 274
241 246 248 250 252 256 259 263 263 264 267 268 272 269 269 281 283 280 282 290 294 292 289 278 278 276 276 276 276 273 270 274 274 274 275 275 272 273
234 238 246 248 252 254 259 262 265 271 276 279 277 286 293 290 288 291 294 290 286 284 286 283 278 276 279 280 279 270 271 271 274 274 272 273 270 272
232 239 248 251 252 255 260 264 268 270 274 284 283 285 304 304 297 306 310 320 311 317 321 312 309 297 282 278 273 271 273 269 268 270 268 271 268 269
228 235 248 256 257 259 266 276 285 288 287 295 293 295 289 290 294 297 304 303 304 305 299 300 299 304 303 304 295 277 270 271 270 269 268 268 264 262
237 243 249 255 266 266 280 262 269 266 279 277 281 283 286 290 293 296 297 297 298 298 298 299 299 297 293 290 288 287 290 285 272 263 266 263 259 260
115 96 239 145 186 245 243 253 264 266 271 277 281 284 287 289 291 293 294 295 296 295 295 296 297 296 294 291 286 281 280 279 278 281 267 262 261 261
147 167 218 226 240 253 265 269 272 274 276 278 279 281 285 287 289 291 293 293 293 293 293 293 295 295 293 291 288 282 275 271 269 271 273 270 261 259
241 253 260 265 267 269 272 275 279 281 284 285 286 287 288 289 290 292 294 293 293 295 295 294 295 294 292 291 287 274 266 264 263 263 265 269 261 256
278 278 279 280 281 283 285 286 287 288 290 291 291 290 290 290 291 292 293 293 294 295 295 294 294 294 292 281 273 265 264 262 259 256 255 258 263 256
288 286 284 284 285 287 287 287 287 288 288 290 291 292 292 292 293 294 295 296 297 298 298 299 297 291 280 269 266 267 270 261 258 256 252 253 248 249
295 292 290 288 288 289 289 289 290 291 292 292 293 294 294 295 296 297 298 299 300 301 301 298 292 284 275 272 256 264 256 254 252 244 250 255 250 255
295 293 292 292 292 292 292 292 294 294 295 295 295 296 297 298 298 299 299 301 301 301 299 292 286 280 274 269 265 253 244 254 246 242 251 242 235 238
300 297 295 293 292 291 292 293 294 295 295 296 296 297 298 298 299 300 302 303 303 301 296 287 280 276 270 265 261 253 243 244 261 235 250 236 231 236
298 297 298 296 295 294 293 292 293 295 295 294 296 297 298 299 300 302 303 303 303 299 291 281 274 271 266 261 253 251 244 245 258 245 244 246 242 237
292 293 295 296 294 293 294 295 295 296 297 296 297 298 299 302 303 305 305 305 301 295 289 280 270 265 262 257 249 244 247 252 252 250 239 249 249 243
293 294 294 295 295 295 294 296 297 297 297 297 299 301 304 305 306 307 307 303 297 291 284 275 268 263 259 255 248 243 244 243 252 249 252 256 251 243
296 294 294 294 296 297 297 298 299 299 300 301 302 304 305 307 309 309 306 301 292 285 280 275 268 264 260 256 252 246 249 239 244 251 250 253 247 238
296 294 293 296 298 298 298 298 299 300 301 302 304 306 309 311 311 311 306 296 286 281 279 276 271 266 264 261 259 256 252 254 246 244 239 246 240 238